Regional Weather Roundup
Issued by NWS

Home | Current Version | Previous Version | Graphics & Text | Print | Product List | Glossary On
Versions: 1 2 3 4 5 6 7 8 9 10 11 12 13 14 15 16 17 18 19 20 21 22 23 24 25 26 27 28 29 30 31 32 33 34 35 36 37 38 39 40 41 42 43 44 45 46 47 48 49 50
000
ASUS45 KCYS 221910
RWRWY

WYOMING REGIONAL WEATHER ROUNDUP
NATIONAL WEATHER SERVICE CHEYENNE WY
100 PM MDT TUE JUL 22 2014

NOTE:  "FAIR" INDICATES FEW OR NO CLOUDS BELOW 12,000 FEET
WITH NO SIGNIFICANT WEATHER AND/OR OBSTRUCTIONS TO VISIBILITY.

WYZ001-222000-
YELLOWSTONE NATIONAL PARK

CITY           SKY/WX    TMP DP  RH WIND       PRES   REMARKS
LK YELLOWSTONE   N/A     67  44  43 VRB5      30.50F
W YELLOWSTONE  NOT AVBL

$$
WYZ002>013-054>058-071-098>099-222000-
NORTHERN WYOMING

CITY           SKY/WX    TMP DP  RH WIND       PRES   REMARKS
JACKSON        SUNNY     79  43  27 CALM      30.38F
CODY           MOSUNNY   84  52  32 NE14      30.24S
GREYBULL       SUNNY     91  43  18 VRB7G20   30.16F
WORLAND        SUNNY     92  40  16 SW7       30.17F
SHERIDAN       SUNNY     86  58  38 N5        30.17F
BUFFALO        SUNNY     90  45  21 S15G23    30.24F
GILLETTE       SUNNY     89  54  30 S10G21    30.23F
HULETT         FAIR      84  55  37 MISG      30.25
NEWCASTLE      FAIR      86  46  25 MISG      30.26

$$
WYZ014>020-022>026-101>103-222000-
CENTRAL WYOMING

CITY           SKY/WX    TMP DP  RH WIND       PRES   REMARKS
BIG PINEY      SUNNY     79  35  20 VRB6      30.43F
PINEDALE       PTCLDY    79  32  18 S5        30.44F
DUBOIS         FAIR      77  32  19 W12G26    30.41S
LANDER         SUNNY     86  45  23 N7        30.27F
RIVERTON       SUNNY     85  41  21 VRB3      30.29F
CASPER         SUNNY     86  48  26 CALM      30.29F
DOUGLAS        SUNNY     87  54  32 SE15G24   30.29F

$$
WYZ021-027>030-104>119-222000-
SOUTHERN WYOMING

CITY           SKY/WX    TMP DP  RH WIND       PRES   REMARKS
EVANSTON       SUNNY     82  31  15 SW12G22   30.43F
KEMMERER       CLEAR     81  30  16 W14       30.45F
FORT BRIDGER   FAIR      83  32  15 W8        30.46
ROCK SPRINGS   NOT AVBL
DIXON          FAIR      89  25  10 S5        30.41F
RAWLINS        SUNNY     87  23   9 MISG      30.40F
SARATOGA       FAIR      88  27  11 W9G20     30.43S
LARAMIE        SUNNY     84  32  15 SE8       30.43F
CHEYENNE       SUNNY     84  53  34 E7        30.38F
TORRINGTON     SUNNY     88  55  32 SE12G18   30.25F
PINE BLUFFS    FAIR      88  50  27 SE10G17   30.32F

$$


USA.gov is the U.S. government's official web portal to all federal, state and local government web resources and services.